Aeroporto :
LOGIN :

Iscrizione | Disclaimer

   EN    FR    IT 

 










Sommario :    VFR   VFR Marginale   IFR   IFR Intensivo   IFR Molto Intensivo
Visibilità : 
Base nubi : 
>= 8 km
>= 3000ft
5 / 8 km
1000 / 3000 ft
1500m / 5 km
500 / 1000 ft
800 / 1500m
200 / 500 ft
< 800m
< 200 ft
Simboli :   Temporali  Nebbia  Neve Forte  Precipitazioni Forti  Vento > 20 kt
SIGMETs :   Varie  Temporali  Ghiacco  Turbolenza  Onda orograficha  Ceneri Vulcaniche






- Altitudine del aeroporto : 353 ft
- Codice IATA : LIN


LIML - Milano Linate

ULTIMO METAR :
  • 051450Z 24006KT 190V300 CAVOK 29/15 Q1005 NOSIG

METARs OBSOLETI :
  • 051420Z 22007KT 170V270 CAVOK 29/14 Q1005 NOSIG
  • 051350Z 25008KT 200V300 CAVOK 28/16 Q1005 NOSIG
  • 051320Z 22007KT 180V280 CAVOK 28/16 Q1006 NOSIG
  • 051250Z 25006KT 190V290 CAVOK 28/16 Q1006 NOSIG
  • 051220Z 24007KT 180V300 CAVOK 27/18 Q1006 NOSIG

TAF TAF LIML
Valido dal 05 a 12 ore il 06 a 12 ore UTC


051100Z 0512/0612 26010KT 9999 FEW040
BECMG 0514/0516 VRB05KT



MetMap, La meteo Aeronautica in un colpo d'occhio ! - Copyright ORBIFLY Dicembre 2007 - Disclaimer

ORBIFLY MET'MAP TEAM :

Programmazione e sviluppo : Alexandra Zaïnal
Concezione : Baudouin d'Aumeries
Aiuto per la programmazione : Marc-Olivier Méhu
Supporto tecnico e logistico : Manuel Goepfert
Aiuto per la traduzione : Arnaldo La Scala

Contatto : metmap@orbifly.com




FONTI E CREDITI :

   NOAA